Wind_Speed
7 6 8 7 9 9 13 9 12 14 6 10 9 11 13 14 16 17 17 17 17 15 11 9 10 10 11 12 14 16 16 15 8 7 6 7 9 8 5 3 2 1 2 4
8 16 10 6 5 5 5 6 12 7 9 9 9 10 10 13 16 16 17 16 17 15 12 11 10 10 11 12 13 11 12 13 10 10 9 8 8 6 6 4 2 2 5 5
10 3 5 6 8 8 5 9 11 12 12 14 11 13 12 10 11 11 15 17 16 16 15 13 12 11 12 13 13 13 13 13 12 12 10 8 7 5 3 1 2 5 5 7
3 9 5 3 5 3 10 3 10 3 9 14 16 13 21 17 16 14 16 14 15 16 15 15 16 16 17 16 16 17 16 14 12 10 8 7 4 4 4 1 4 4 9 10
11 10 12 11 3 5 12 7 6 7 12 5 15 9 15 13 15 15 16 17 17 18 20 20 20 20 19 18 18 16 14 12 11 9 8 6 4 3 1 1 5 7 9 11
13 1 3 5 2 3 4 5 6 7 10 7 16 12 14 15 15 16 18 19 20 21 21 22 21 20 18 18 16 15 14 12 11 10 10 8 6 3 0 3 6 7 10 11
9 8 4 6 6 5 9 9 8 8 8 10 3 6 12 7 7 14 20 23 22 22 23 23 22 20 18 17 16 15 15 13 12 11 9 8 6 5 3 7 6 8 9 11
12 9 12 9 10 4 9 13 9 6 6 10 7 7 3 10 3 6 22 22 23 24 24 23 21 19 18 17 17 16 15 14 13 11 9 3 2 9 4 5 6 7 9 12
8 6 6 2 3 7 7 8 7 5 3 7 12 16 11 6 5 9 20 23 25 25 24 23 21 19 18 18 18 18 16 15 13 10 2 6 6 5 2 4 6 8 10 13
1 3 3 5 5 5 8 3 4 5 4 9 5 5 5 6 6 10 17 23 25 25 24 23 21 20 20 20 19 19 18 15 12 4 4 0 1 1 2 5 7 10 11 13
6 7 7 4 10 11 7 10 7 4 2 4 4 2 7 3 2 9 15 22 24 25 25 23 21 21 21 21 21 20 18 15 9 6 1 5 4 3 5 7 8 10 13 13
6 5 5 13 5 5 10 8 10 5 6 2 3 7 3 4 3 8 11 18 21 24 25 23 22 22 23 24 23 21 18 14 11 5 8 7 6 7 8 9 10 12 13 14
6 7 8 7 6 7 9 11 9 4 1 8 3 3 6 6 4 6 11 17 22 25 25 25 25 25 25 25 24 21 17 14 11 8 9 8 9 9 10 11 12 12 14 15
1 11 10 10 6 2 12 13 12 13 7 9 10 13 7 10 7 7 10 15 21 24 25 26 26 26 26 25 24 21 17 15 11 12 11 11 12 11 12 13 13 14 14 15
4 7 12 14 6 6 8 10 13 17 16 13 12 13 8 7 7 8 9 12 17 21 24 26 26 26 26 26 25 21 18 13 15 13 12 11 12 12 13 14 15 15 15 15
5 4 2 5 8 8 11 12 14 14 17 17 17 16 15 12 6 9 8 11 15 19 22 25 26 26 27 27 25 22 16 16 14 13 12 12 12 13 14 14 15 16 15 15
5 4 4 4 3 4 6 16 16 16 16 14 16 15 9 3 5 10 10 10 14 17 20 24 26 26 26 25 24 21 16 16 14 12 12 12 13 14 13 14 16 16 16 16
5 4 2 1 2 1 4 0 5 10 15 17 15 15 13 7 9 7 8 11 14 15 18 21 22 23 23 22 22 18 16 15 12 11 11 12 13 14 14 15 16 17 16 16
3 4 2 3 6 9 10 6 2 4 7 6 8 9 8 3 6 15 14 11 10 13 15 17 19 20 21 22 21 18 16 15 11 12 11 12 13 14 15 16 16 16 16 16
3 1 4 3 3 4 3 4 1 1 6 8 7 5 1 3 4 6 2 5 8 11 14 16 17 18 19 20 18 17 16 10 9 9 11 13 12 14 16 16 16 16 15 15
3 2 6 6 3 5 2 2 2 4 3 6 7 7 5 6 7 7 8 9 11 12 13 14 16 17 16 16 15 12 6 5 9 15 13 11 12 15 15 15 15 15 14 13
6 6 3 3 3 6 6 6 1 4 5 5 7 7 7 10 13 13 12 11 10 10 9 9 10 10 12 9 5 3 4 6 15 14 13 12 13 14 14 15 14 13 13 14
4 4 1 6 2 4 6 4 3 6 8 11 11 12 12 14 16 16 13 11 8 6 7 7 12 11 10 11 6 5 5 11 11 14 14 12 12 13 14 15 14 13 14 15
4 3 3 1 3 5 7 10 8 7 8 9 10 11 12 13 14 14 11 6 3 6 7 9 11 12 10 6 5 2 10 14 15 14 16 14 14 16 19 12 12 14 15 14
2 8 5 6 12 8 7 4 4 6 7 8 8 9 8 10 12 11 3 2 6 11 9 10 9 7 6 3 5 10 14 14 15 16 15 14 16 15 14 14 14 15 15 15
6 3 3 3 8 5 6 5 7 7 5 4 5 5 7 8 5 3 9 10 10 11 12 10 10 6 3 5 9 14 15 15 15 14 14 14 14 14 15 15 16 17 16 16
Wind_Direction
204 232 236 183 214 270 197 185 185 124 146 225 189 149 162 175 184 184 187 181 181 181 177 174 176 172 166 172 175 207 186 187 178 179 181 163 152 155 155 165 189 4 280 333
196 210 237 204 187 250 250 236 115 122 173 252 197 174 162 178 195 190 197 197 194 181 185 180 176 173 169 168 172 186 159 158 158 164 158 152 163 165 175 165 279 310 305 334
310 92 156 191 193 229 236 217 158 176 182 231 197 169 177 184 185 210 206 204 200 189 188 180 169 165 165 160 155 149 152 154 158 162 160 157 168 181 168 295 332 301 317 323
294 197 202 217 215 256 264 102 220 195 197 215 209 234 187 172 183 197 202 201 193 189 182 172 162 155 151 148 147 150 150 157 156 154 168 172 190 173 161 199 261 293 313 320
191 176 201 209 73 292 109 237 208 210 240 243 189 255 139 241 192 188 186 190 180 172 166 160 153 148 147 146 147 151 150 149 145 147 151 156 153 116 146 299 313 309 306 311
255 56 301 51 100 266 130 168 213 239 254 252 260 225 173 189 209 180 180 180 174 169 164 159 155 153 150 152 152 151 149 145 141 138 133 138 122 110 222 308 314 310 319 316
178 171 120 180 145 159 203 218 225 227 217 237 268 281 270 246 161 188 183 182 179 175 169 165 164 162 163 161 157 155 155 150 144 135 123 109 87 52 359 342 327 332 321 320
193 183 178 178 257 235 219 251 249 277 274 272 146 244 290 28 88 241 176 185 181 181 178 177 176 173 172 169 164 161 163 161 150 139 126 107 318 332 5 319 331 325 326 324
237 143 133 239 228 264 184 245 324 306 292 283 285 276 176 139 156 202 176 184 186 187 185 185 183 182 182 177 174 170 172 169 157 151 200 321 351 318 316 322 321 324 330 323
321 266 175 129 213 214 272 26 217 226 257 256 293 274 298 169 203 200 188 189 190 193 191 190 188 188 187 183 179 174 176 174 169 231 316 210 160 192 289 305 322 330 325 321
265 249 149 169 211 228 182 232 233 303 291 285 303 299 56 22 231 201 209 196 195 198 196 195 195 194 189 185 183 177 178 181 188 181 251 197 200 237 284 300 315 320 320 318
212 244 207 230 84 306 299 267 207 229 212 227 312 287 150 128 213 197 213 203 203 206 203 202 202 198 193 191 187 185 186 189 187 251 207 203 220 257 281 295 304 308 313 313
184 228 225 230 206 218 239 230 238 225 326 238 239 276 170 154 213 216 217 211 211 211 208 208 207 204 200 198 195 193 192 195 208 221 208 221 243 265 280 287 291 302 308 309
140 243 229 244 275 300 207 241 218 215 223 245 242 281 218 201 224 221 227 227 214 216 214 214 212 211 208 205 202 198 197 204 211 207 221 240 251 266 277 281 288 295 300 304
237 238 238 262 291 291 282 259 224 234 237 252 263 269 284 313 296 252 230 233 229 222 219 218 216 214 213 209 208 205 207 215 205 212 229 246 258 270 279 280 285 288 295 302
199 228 276 254 244 264 265 256 253 243 249 254 260 275 295 327 275 267 250 239 233 225 221 219 219 219 217 214 212 210 217 209 211 219 234 249 262 273 277 280 285 289 294 300
185 171 182 246 359 296 288 239 248 248 248 251 263 272 342 319 268 273 259 240 239 234 226 222 222 221 220 219 216 215 213 212 215 225 243 260 272 277 281 286 287 285 289 298
166 178 171 246 228 294 262 277 291 269 264 256 261 271 286 287 317 292 271 258 240 238 233 229 225 224 223 221 213 216 217 214 223 237 261 270 281 284 286 288 289 288 288 293
224 166 152 183 223 289 286 192 243 238 286 328 323 308 304 41 290 268 235 234 243 248 243 236 229 225 221 220 215 214 209 207 215 260 263 279 286 293 293 292 291 287 288 291
95 125 226 168 221 237 74 73 92 212 258 49 31 11 19 192 279 333 84 241 255 252 240 230 223 220 218 214 213 204 200 223 225 243 274 283 294 293 292 292 290 289 285 283
138 215 214 206 252 283 48 170 210 238 40 14 353 321 272 245 311 352 333 306 274 259 240 224 217 218 210 204 190 192 190 234 269 283 287 294 295 290 288 290 294 291 283 277
184 174 189 180 209 261 140 140 229 35 317 336 324 305 289 291 293 296 305 306 287 260 234 213 196 186 179 178 178 149 153 255 281 288 294 296 292 289 291 293 292 283 280 276
219 228 260 213 229 110 184 310 298 305 301 305 304 297 296 289 294 299 294 297 293 248 201 183 170 154 158 187 150 142 266 275 287 293 295 296 295 294 293 289 287 281 278 274
216 184 230 302 164 247 261 280 284 288 284 298 305 305 305 302 304 302 293 270 227 175 164 157 150 159 169 124 44 303 287 294 291 296 298 300 297 294 304 298 285 276 273 271
356 163 226 246 273 272 274 261 314 320 313 311 314 317 318 321 311 307 285 195 151 144 122 138 142 122 82 39 314 306 296 294 299 300 300 293 294 301 304 295 294 280 273 262
193 242 213 250 19 328 332 14 328 317 341 348 354 2 12 3 6 80 105 116 125 136 146 141 105 67 13 316 295 291 290 295 297 298 301 298 289 294 291 291 288 295 291 279
Height
1499 1495 1494 1487 1486 1483 1480 1480 1483 1484 1491 1492 1493 1496 1502 1506 1509 1513 1515 1519 1524 1528 1533 1535 1538 1540 1543 1545 1547 1545 1548 1551 1554 1557 1559 1560 1562 1564 1565 1565 1564 1564 1565 1565
1499 1503 1487 1480 1485 1484 1482 1482 1485 1490 1495 1497 1493 1494 1499 1504 1506 1509 1513 1517 1521 1526 1532 1535 1537 1539 1541 1543 1546 1545 1547 1551 1555 1558 1560 1562 1563 1564 1565 1564 1563 1564 1563 1564
1498 1487 1489 1488 1487 1487 1483 1483 1490 1490 1494 1494 1487 1491 1500 1502 1505 1510 1512 1515 1519 1525 1530 1534 1536 1538 1540 1542 1544 1546 1550 1553 1556 1558 1559 1561 1561 1561 1563 1563 1564 1562 1561 1562
1501 1490 1489 1487 1486 1485 1492 1484 1486 1488 1494 1498 1484 1496 1488 1496 1502 1508 1512 1514 1518 1522 1527 1531 1534 1537 1540 1542 1545 1548 1551 1553 1554 1557 1559 1560 1561 1561 1561 1562 1562 1562 1560 1559
1492 1487 1486 1485 1485 1486 1497 1491 1487 1487 1485 1482 1483 1492 1507 1498 1497 1500 1508 1513 1517 1521 1525 1529 1533 1536 1539 1542 1545 1548 1550 1552 1553 1555 1557 1559 1560 1560 1560 1561 1559 1559 1557 1555
1504 1488 1485 1482 1490 1490 1491 1491 1490 1487 1484 1501 1483 1486 1484 1486 1483 1491 1503 1510 1516 1520 1524 1528 1532 1535 1538 1540 1543 1546 1549 1550 1552 1553 1554 1556 1557 1558 1558 1556 1556 1554 1552 1550
1487 1485 1490 1491 1492 1492 1490 1492 1501 1501 1499 1504 1480 1486 1480 1472 1478 1483 1498 1506 1514 1519 1523 1526 1530 1533 1536 1539 1541 1544 1547 1549 1550 1551 1552 1554 1555 1555 1556 1555 1553 1550 1548 1546
1485 1499 1486 1488 1487 1488 1491 1487 1499 1513 1506 1491 1483 1493 1477 1474 1477 1485 1492 1504 1511 1517 1521 1524 1528 1531 1535 1537 1540 1543 1546 1548 1548 1549 1550 1550 1551 1550 1552 1552 1550 1548 1545 1542
1479 1487 1488 1490 1490 1490 1485 1498 1486 1496 1500 1507 1490 1475 1467 1479 1484 1487 1492 1501 1508 1514 1518 1522 1526 1529 1533 1535 1538 1541 1544 1546 1546 1546 1547 1547 1546 1546 1547 1548 1547 1544 1541 1538
1476 1488 1485 1492 1493 1493 1493 1487 1501 1498 1518 1516 1482 1481 1477 1480 1483 1487 1490 1498 1505 1512 1516 1520 1523 1527 1530 1533 1536 1538 1541 1543 1543 1542 1542 1542 1543 1544 1545 1545 1542 1539 1537 1534
1478 1485 1491 1494 1492 1483 1493 1494 1494 1492 1498 1508 1506 1485 1475 1480 1482 1485 1488 1494 1501 1508 1513 1518 1522 1525 1528 1530 1532 1535 1538 1539 1538 1538 1538 1539 1540 1541 1542 1540 1538 1535 1532 1530
1480 1482 1493 1488 1484 1486 1484 1482 1485 1503 1502 1503 1508 1496 1481 1483 1484 1486 1488 1492 1498 1504 1509 1514 1520 1523 1525 1527 1529 1531 1533 1534 1535 1535 1534 1536 1537 1538 1538 1536 1534 1531 1528 1526
1484 1486 1497 1492 1489 1487 1487 1483 1484 1486 1498 1501 1513 1493 1481 1484 1486 1486 1487 1490 1495 1499 1504 1510 1515 1519 1521 1523 1525 1526 1528 1530 1530 1530 1532 1533 1535 1534 1533 1531 1529 1527 1524 1521
1487 1482 1485 1492 1481 1475 1487 1482 1482 1488 1499 1496 1490 1480 1476 1478 1482 1483 1487 1487 1490 1495 1500 1505 1510 1515 1517 1520 1521 1522 1523 1524 1525 1528 1530 1530 1530 1529 1528 1526 1524 1522 1519 1516
1487 1488 1481 1479 1482 1482 1480 1478 1479 1483 1482 1488 1482 1475 1470 1470 1474 1478 1482 1487 1487 1492 1497 1501 1506 1510 1513 1516 1517 1518 1519 1519 1523 1524 1525 1526 1525 1524 1523 1521 1518 1516 1514 1511
1487 1487 1490 1494 1484 1486 1485 1479 1476 1475 1476 1474 1473 1474 1469 1472 1474 1479 1481 1486 1487 1490 1494 1498 1502 1505 1508 1510 1513 1514 1515 1517 1518 1520 1520 1521 1520 1518 1517 1515 1513 1511 1510 1507
1486 1492 1496 1493 1496 1494 1503 1485 1476 1473 1471 1473 1478 1471 1470 1475 1479 1480 1481 1484 1486 1488 1490 1493 1496 1500 1503 1506 1509 1510 1512 1513 1515 1515 1517 1517 1515 1513 1511 1510 1508 1506 1505 1503
1492 1490 1495 1496 1511 1517 1470 1470 1471 1470 1468 1466 1467 1469 1470 1476 1479 1480 1481 1481 1484 1486 1488 1490 1493 1497 1500 1503 1505 1507 1508 1510 1511 1513 1514 1513 1511 1509 1507 1505 1504 1502 1501 1498
1487 1489 1498 1505 1491 1477 1472 1468 1475 1475 1472 1465 1469 1468 1471 1478 1482 1478 1477 1480 1482 1484 1486 1487 1490 1493 1496 1499 1502 1503 1504 1504 1505 1506 1509 1509 1507 1506 1504 1502 1500 1497 1495 1493
1491 1492 1491 1499 1503 1505 1474 1476 1478 1477 1477 1475 1475 1476 1477 1480 1482 1475 1479 1481 1481 1482 1483 1484 1486 1489 1492 1495 1498 1498 1499 1500 1501 1502 1502 1503 1501 1501 1499 1497 1495 1492 1490 1488
1494 1496 1497 1495 1498 1483 1471 1477 1479 1484 1484 1479 1479 1478 1479 1480 1479 1480 1479 1480 1480 1480 1481 1482 1484 1487 1491 1494 1494 1496 1498 1501 1505 1500 1498 1498 1497 1496 1494 1491 1489 1488 1487 1485
1484 1489 1497 1493 1505 1498 1476 1478 1482 1479 1479 1480 1479 1479 1480 1480 1480 1479 1480 1479 1479 1479 1480 1482 1485 1488 1491 1495 1496 1495 1492 1498 1498 1497 1495 1493 1492 1492 1489 1486 1483 1482 1481 1482
1481 1475 1476 1479 1475 1475 1476 1476 1477 1479 1479 1479 1480 1479 1479 1478 1478 1477 1476 1478 1477 1479 1480 1482 1483 1484 1487 1486 1488 1491 1495 1495 1493 1494 1493 1489 1488 1486 1485 1482 1480 1478 1478 1477
1474 1478 1479 1479 1469 1472 1474 1475 1476 1477 1478 1478 1478 1477 1477 1476 1476 1475 1474 1476 1477 1479 1481 1483 1483 1483 1484 1485 1487 1490 1491 1491 1489 1487 1487 1485 1483 1482 1478 1476 1475 1475 1473 1470
1472 1476 1474 1473 1471 1470 1472 1473 1476 1477 1477 1477 1477 1476 1476 1475 1474 1473 1474 1476 1478 1480 1481 1482 1484 1485 1485 1488 1489 1489 1488 1486 1485 1484 1482 1481 1479 1477 1476 1473 1471 1469 1468 1466
1472 1469 1474 1473 1471 1472 1472 1475 1477 1477 1476 1477 1476 1476 1475 1475 1474 1474 1475 1478 1478 1479 1481 1481 1482 1485 1488 1488 1487 1485 1484 1482 1481 1479 1478 1477 1476 1474 1472 1469 1467 1464 1461 1459